Torna al catalogo

METEOR 2-7 DEB

AttivoPO
NORAD 43302·DEBRIS·🇷🇺 Russia

Lanciato May 14, 1981 da Plesetsk Cosmodrome

Loading…

Prossimi Passaggi (prossime 24 ore)

TLE

In scadenzaSource: Space-Track

Epoca: Sep 6, 2026, 13:15 UTC

1 43302U 81043Z   26249.55270830  .00001973  00000-0  64122-3 0  9999
2 43302  81.2628 333.1588 0049082 138.1799 222.3155 14.37845177543282

Traccia METEOR 2-7 DEB in tempo reale con AllMySat

Download on the App Store